Location: San Antonio
(29.4240°N, 98.4930°W)
Time: 08:11:52
(UTC-05:00)

ACS3 Solar Sail - Pass Details

Date: 25 June 2024
Orbit: 992 x 1023 km, 97.4° (Epoch: 11 July)

Event Time Altitude Azimuth Distance (km) Brightness Sun altitude
Exits shadow 23:16:04 67° 175° (S) 1,071 4.7 -27.3°
Maximum altitude 23:16:59 87° 257° (WSW) 1,001 4.7 -27.4°
Drops below altitude 10° 23:23:13 10° 348° (NNW) 2,760 8.0 -28.2°
Sets 23:25:42 0° 349° (N) 3,710 8.8 -28.5°
